AAL7588 KORD-KCMH

Flight info

Callsign AAL7588
Flight time 0h 52m
Altitude 35000
Route MOBLE ADIME SEWTO FWA BRYEN DUBLN1
Aircraft A319/M-SDE3FGHIRWY/LB1

Departure

Time 2026-05-09 01:52
Airport Chicago O'Hare International Airport (KORD)

Arrival

Time 2026-05-09 02:44
Airport John Glenn Columbus International Airport (KCMH)
Time Latitude Longitude Altitude Speed Heading
2026-05-09 01:11 41.98003 -87.90705 669 ft 0 kts 99°
2026-05-09 01:26 41.98004 -87.90710 669 ft 3 kts 99°
2026-05-09 01:26 41.98009 -87.90745 667 ft 4 kts 107°
2026-05-09 01:26 41.98020 -87.90776 668 ft 4 kts 141°
2026-05-09 01:26 41.98038 -87.90783 666 ft 4 kts 189°
2026-05-09 01:27 41.98049 -87.90781 667 ft 0 kts 189°
2026-05-09 01:33 41.98053 -87.90780 667 ft 2 kts 191°
2026-05-09 01:33 41.98066 -87.90775 665 ft 2 kts 205°
2026-05-09 01:33 41.98072 -87.90775 666 ft 2 kts 328°
2026-05-09 01:34 41.98086 -87.90783 666 ft 5 kts 341°
2026-05-09 01:34 41.98133 -87.90788 669 ft 9 kts
2026-05-09 01:34 41.98203 -87.90792 669 ft 11 kts 356°
2026-05-09 01:34 41.98277 -87.90744 668 ft 15 kts 63°
2026-05-09 01:35 41.98287 -87.90571 668 ft 22 kts 88°
2026-05-09 01:35 41.98288 -87.90367 669 ft 4 kts 90°
2026-05-09 01:35 41.98288 -87.90325 669 ft 7 kts 90°
2026-05-09 01:35 41.98288 -87.90226 669 ft 14 kts 90°
2026-05-09 01:36 41.98288 -87.90074 669 ft 18 kts 90°
2026-05-09 01:36 41.98288 -87.89916 670 ft 16 kts 89°
2026-05-09 01:36 41.98289 -87.89748 670 ft 18 kts 90°
2026-05-09 01:36 41.98273 -87.89565 670 ft 20 kts 112°
2026-05-09 01:37 41.98182 -87.89429 669 ft 18 kts 136°
2026-05-09 01:37 41.98109 -87.89345 669 ft 11 kts 148°
2026-05-09 01:37 41.98041 -87.89365 669 ft 10 kts 226°
2026-05-09 01:37 41.97982 -87.89455 669 ft 15 kts 229°
2026-05-09 01:38 41.97907 -87.89520 669 ft 14 kts 193°
2026-05-09 01:38 41.97784 -87.89524 669 ft 21 kts 180°
2026-05-09 01:38 41.97625 -87.89528 669 ft 21 kts 180°
2026-05-09 01:38 41.97526 -87.89525 669 ft 13 kts 179°
2026-05-09 01:39 41.97424 -87.89535 669 ft 14 kts 191°
2026-05-09 01:39 41.97351 -87.89582 668 ft 11 kts 217°
2026-05-09 01:39 41.97293 -87.89675 669 ft 15 kts 233°
2026-05-09 01:39 41.97239 -87.89809 669 ft 17 kts 245°
2026-05-09 01:40 41.97207 -87.89954 669 ft 15 kts 264°
2026-05-09 01:40 41.97192 -87.90099 669 ft 16 kts 241°
2026-05-09 01:40 41.97094 -87.90130 669 ft 13 kts 184°
2026-05-09 01:40 41.97040 -87.90228 669 ft 17 kts 265°
2026-05-09 01:41 41.97041 -87.90408 668 ft 22 kts 269°
2026-05-09 01:41 41.97040 -87.90600 668 ft 21 kts 269°
2026-05-09 01:41 41.97040 -87.90809 668 ft 21 kts 269°
2026-05-09 01:41 41.97039 -87.90908 668 ft 2 kts 269°
2026-05-09 01:42 41.97038 -87.90947 669 ft 6 kts 269°
2026-05-09 01:42 41.97038 -87.91027 669 ft 11 kts 269°
2026-05-09 01:42 41.97037 -87.91146 669 ft 15 kts 269°
2026-05-09 01:42 41.97038 -87.91285 669 ft 15 kts 270°
2026-05-09 01:43 41.97040 -87.91445 670 ft 19 kts 270°
2026-05-09 01:43 41.97039 -87.91642 670 ft 21 kts 269°
2026-05-09 01:43 41.97038 -87.91835 669 ft 17 kts 270°
2026-05-09 01:43 41.97038 -87.91942 669 ft 9 kts 268°
2026-05-09 01:44 41.97037 -87.91966 669 ft 0 kts 269°
2026-05-09 01:44 41.97037 -87.91968 669 ft 0 kts 269°
2026-05-09 01:44 41.97037 -87.91969 669 ft 1 kts 269°
2026-05-09 01:44 41.97037 -87.91974 669 ft 0 kts 269°
2026-05-09 01:50 41.97037 -87.91978 669 ft 2 kts 268°
2026-05-09 01:50 41.97035 -87.92006 669 ft 4 kts 263°
2026-05-09 01:51 41.97020 -87.92051 668 ft 6 kts 228°
2026-05-09 01:51 41.96973 -87.92077 669 ft 9 kts 193°
2026-05-09 01:51 41.96912 -87.92056 669 ft 9 kts 127°
2026-05-09 01:51 41.96903 -87.91989 669 ft 8 kts 91°
2026-05-09 01:52 41.96903 -87.91604 672 ft 84 kts 90°
2026-05-09 01:52 41.96903 -87.90451 669 ft 160 kts 90°
2026-05-09 01:52 41.96911 -87.88954 1425 ft 158 kts 91°
2026-05-09 01:52 41.96916 -87.87473 2257 ft 159 kts 91°
2026-05-09 01:53 41.96910 -87.85895 2861 ft 180 kts 91°
2026-05-09 01:53 41.96899 -87.84107 3460 ft 204 kts 91°
2026-05-09 01:53 41.96886 -87.82088 4081 ft 227 kts 91°
2026-05-09 01:53 41.96873 -87.79874 4749 ft 248 kts 91°
2026-05-09 01:54 41.96832 -87.77450 5376 ft 271 kts 92°
2026-05-09 01:54 41.96765 -87.74846 6142 ft 285 kts 92°
2026-05-09 01:54 41.96684 -87.72155 7046 ft 292 kts 92°
2026-05-09 01:54 41.96596 -87.69396 7967 ft 299 kts 91°
2026-05-09 01:55 41.96507 -87.66576 8902 ft 305 kts 90°
2026-05-09 01:55 41.96417 -87.63697 9824 ft 311 kts 90°
2026-05-09 01:55 41.96326 -87.60741 10454 ft 327 kts 90°
2026-05-09 01:55 41.96231 -87.57584 10861 ft 347 kts 90°
2026-05-09 01:56 41.96130 -87.54302 11592 ft 355 kts 90°
2026-05-09 01:56 41.96023 -87.50973 12421 ft 359 kts 91°
2026-05-09 01:56 41.95916 -87.47607 13256 ft 363 kts 91°
2026-05-09 01:56 41.95810 -87.44202 14009 ft 367 kts 91°
2026-05-09 01:57 41.95706 -87.40752 14697 ft 372 kts 91°
2026-05-09 01:57 41.95598 -87.37254 15377 ft 378 kts 91°
2026-05-09 01:57 41.95485 -87.33707 16048 ft 383 kts 91°
2026-05-09 01:57 41.95366 -87.30114 16697 ft 389 kts 92°
2026-05-09 01:58 41.95243 -87.26460 17372 ft 394 kts 92°
2026-05-09 01:58 41.95114 -87.22757 18043 ft 399 kts 92°
2026-05-09 01:58 41.94983 -87.19007 18624 ft 404 kts 92°
2026-05-09 01:58 41.94853 -87.15217 19195 ft 409 kts 92°
2026-05-09 01:59 41.94722 -87.11363 19766 ft 415 kts 92°
2026-05-09 01:59 41.94591 -87.07484 20343 ft 420 kts 92°
2026-05-09 01:59 41.94502 -87.03537 20913 ft 425 kts 90°
2026-05-09 01:59 41.94516 -86.99549 21463 ft 430 kts 88°
2026-05-09 02:00 41.94602 -86.95514 22010 ft 435 kts 88°
2026-05-09 02:00 41.94717 -86.91427 22559 ft 441 kts 87°
2026-05-09 02:00 41.94832 -86.87288 23107 ft 446 kts 88°
2026-05-09 02:00 41.94929 -86.83105 23610 ft 451 kts 88°
2026-05-09 02:01 41.95006 -86.78880 24048 ft 455 kts 89°
2026-05-09 02:01 41.95066 -86.74609 24478 ft 460 kts 89°
2026-05-09 02:01 41.95117 -86.70288 24901 ft 465 kts 89°
2026-05-09 02:01 41.95164 -86.65922 25314 ft 470 kts 90°
2026-05-09 02:02 41.95209 -86.61510 25725 ft 474 kts 90°
2026-05-09 02:02 41.95255 -86.57058 26136 ft 479 kts 90°
2026-05-09 02:02 41.95305 -86.52558 26531 ft 484 kts 90°
2026-05-09 02:02 41.95358 -86.48007 26920 ft 489 kts 90°
2026-05-09 02:03 41.95411 -86.43427 27326 ft 493 kts 90°
2026-05-09 02:03 41.95464 -86.38793 27727 ft 498 kts 91°
2026-05-09 02:03 41.95513 -86.34128 28123 ft 502 kts 91°
2026-05-09 02:03 41.95505 -86.29425 28514 ft 505 kts 97°
2026-05-09 02:04 41.94852 -86.24814 28907 ft 500 kts 114°
2026-05-09 02:04 41.93425 -86.20619 29304 ft 490 kts 130°
2026-05-09 02:04 41.91357 -86.17077 29681 ft 476 kts 144°
2026-05-09 02:04 41.89016 -86.13925 30087 ft 478 kts 145°
2026-05-09 02:05 41.86652 -86.10767 30443 ft 480 kts 145°
2026-05-09 02:05 41.84278 -86.07601 30794 ft 483 kts 144°
2026-05-09 02:05 41.81887 -86.04411 31136 ft 486 kts 144°
2026-05-09 02:05 41.79487 -86.01204 31469 ft 488 kts 144°
2026-05-09 02:06 41.77075 -85.97982 31802 ft 491 kts 144°
2026-05-09 02:06 41.74649 -85.94740 32128 ft 494 kts 144°
2026-05-09 02:06 41.72220 -85.91495 32531 ft 494 kts 144°
2026-05-09 02:07 41.67370 -85.85004 33383 ft 493 kts 144°
2026-05-09 02:07 41.64939 -85.81763 33835 ft 493 kts 145°
2026-05-09 02:07 41.63327 -85.79621 34091 ft 493 kts 144°
2026-05-09 02:07 41.60891 -85.76389 34459 ft 493 kts 144°
2026-05-09 02:08 41.58447 -85.73155 34759 ft 494 kts 144°
2026-05-09 02:08 41.53617 -85.66751 34861 ft 482 kts 144°
2026-05-09 02:09 41.48110 -85.59471 34594 ft 480 kts 145°
2026-05-09 02:09 41.46507 -85.57362 34241 ft 479 kts 145°
2026-05-09 02:09 41.44130 -85.54239 33762 ft 479 kts 146°
2026-05-09 02:09 41.41761 -85.51125 33211 ft 478 kts 145°
2026-05-09 02:10 41.39399 -85.48022 32669 ft 475 kts 145°
2026-05-09 02:10 41.37055 -85.44944 32135 ft 472 kts 145°
2026-05-09 02:10 41.34721 -85.41879 31614 ft 469 kts 145°
2026-05-09 02:10 41.32406 -85.38841 31098 ft 466 kts 145°
2026-05-09 02:11 41.30102 -85.35821 30601 ft 463 kts 145°
2026-05-09 02:11 41.27815 -85.32828 30110 ft 460 kts 145°
2026-05-09 02:11 41.25566 -85.29894 29594 ft 457 kts 145°
2026-05-09 02:11 41.23273 -85.26914 28986 ft 454 kts 144°
2026-05-09 02:12 41.21025 -85.23994 28437 ft 451 kts 144°
2026-05-09 02:12 41.18791 -85.21089 27896 ft 448 kts 144°
2026-05-09 02:12 41.16575 -85.18204 27365 ft 445 kts 144°
2026-05-09 02:12 41.14376 -85.15342 26846 ft 442 kts 144°
2026-05-09 02:13 41.12186 -85.12496 26336 ft 439 kts 143°
2026-05-09 02:13 41.10036 -85.09710 25838 ft 437 kts 143°
2026-05-09 02:13 41.07870 -85.06906 25345 ft 434 kts 143°
2026-05-09 02:13 41.05714 -85.04114 24854 ft 432 kts 143°
2026-05-09 02:14 41.03566 -85.01339 24377 ft 430 kts 143°
2026-05-09 02:14 41.01423 -84.98579 23882 ft 428 kts 143°
2026-05-09 02:14 40.99290 -84.95836 23411 ft 426 kts 143°
2026-05-09 02:14 40.97176 -84.93116 22957 ft 421 kts 143°
2026-05-09 02:15 40.95116 -84.90448 22859 ft 407 kts 143°
2026-05-09 02:15 40.93139 -84.87881 22883 ft 390 kts 143°
2026-05-09 02:15 40.91242 -84.85427 22883 ft 374 kts 144°
2026-05-09 02:15 40.89418 -84.83073 22884 ft 359 kts 144°
2026-05-09 02:16 40.87669 -84.80814 22882 ft 346 kts 143°
2026-05-09 02:16 40.86113 -84.78425 22888 ft 340 kts 134°
2026-05-09 02:16 40.84855 -84.75813 22885 ft 335 kts 124°
2026-05-09 02:16 40.83866 -84.72986 22491 ft 344 kts 118°
2026-05-09 02:17 40.82938 -84.70003 21956 ft 350 kts 117°
2026-05-09 02:17 40.82014 -84.67001 21432 ft 355 kts 116°
2026-05-09 02:17 40.81080 -84.63962 20914 ft 360 kts 116°
2026-05-09 02:17 40.80133 -84.60884 20406 ft 364 kts 116°
2026-05-09 02:18 40.79173 -84.57786 19908 ft 367 kts 115°
2026-05-09 02:18 40.78214 -84.54701 19412 ft 369 kts 115°
2026-05-09 02:18 40.77236 -84.51563 18924 ft 371 kts 115°
2026-05-09 02:18 40.76252 -84.48414 18449 ft 372 kts 115°
2026-05-09 02:19 40.75265 -84.45256 17952 ft 373 kts 115°
2026-05-09 02:19 40.74265 -84.42053 17399 ft 373 kts 114°
2026-05-09 02:19 40.73290 -84.38928 16885 ft 373 kts 115°
2026-05-09 02:19 40.72303 -84.35768 16369 ft 373 kts 115°
2026-05-09 02:20 40.71315 -84.32608 15858 ft 372 kts 115°
2026-05-09 02:20 40.70332 -84.29463 15356 ft 371 kts 115°
2026-05-09 02:20 40.69350 -84.26329 14862 ft 369 kts 115°
2026-05-09 02:20 40.68370 -84.23213 14377 ft 368 kts 115°
2026-05-09 02:21 40.67397 -84.20121 14047 ft 361 kts 115°
2026-05-09 02:21 40.66452 -84.17119 13973 ft 346 kts 115°
2026-05-09 02:21 40.65551 -84.14258 13980 ft 330 kts 115°
2026-05-09 02:21 40.64688 -84.11518 13989 ft 316 kts 115°
2026-05-09 02:22 40.63862 -84.08902 13983 ft 303 kts 116°
2026-05-09 02:22 40.63067 -84.06395 13989 ft 291 kts 116°
2026-05-09 02:22 40.62303 -84.03988 13982 ft 281 kts 116°
2026-05-09 02:22 40.61556 -84.01632 13991 ft 278 kts 116°
2026-05-09 02:23 40.60811 -83.99290 13989 ft 277 kts 116°
2026-05-09 02:23 40.60066 -83.96953 13993 ft 277 kts 116°
2026-05-09 02:23 40.59319 -83.94615 13990 ft 277 kts 116°
2026-05-09 02:23 40.58575 -83.92279 13983 ft 277 kts 116°
2026-05-09 02:24 40.57829 -83.89941 13985 ft 277 kts 116°
2026-05-09 02:24 40.57084 -83.87604 13987 ft 277 kts 116°
2026-05-09 02:24 40.56338 -83.85262 13979 ft 277 kts 116°
2026-05-09 02:24 40.55591 -83.82922 13987 ft 277 kts 116°
2026-05-09 02:25 40.54844 -83.80585 13983 ft 277 kts 116°
2026-05-09 02:25 40.54096 -83.78250 13979 ft 277 kts 116°
2026-05-09 02:25 40.53348 -83.75912 13981 ft 277 kts 116°
2026-05-09 02:25 40.52598 -83.73566 13901 ft 280 kts 116°
2026-05-09 02:26 40.51855 -83.71248 13664 ft 279 kts 116°
2026-05-09 02:26 40.51103 -83.68905 13401 ft 277 kts 116°
2026-05-09 02:26 40.50356 -83.66576 13131 ft 276 kts 116°
2026-05-09 02:26 40.49611 -83.64258 12863 ft 275 kts 116°
2026-05-09 02:27 40.48868 -83.61954 12606 ft 273 kts 116°
2026-05-09 02:27 40.48129 -83.59664 12347 ft 272 kts 116°
2026-05-09 02:27 40.47338 -83.57235 12100 ft 310 kts 116°
2026-05-09 02:27 40.46464 -83.54556 11831 ft 324 kts 116°
2026-05-09 02:28 40.45584 -83.51822 11568 ft 327 kts 116°
2026-05-09 02:28 40.44694 -83.49077 11320 ft 327 kts 118°
2026-05-09 02:28 40.43558 -83.46521 11070 ft 321 kts 130°
2026-05-09 02:28 40.42236 -83.44163 10827 ft 320 kts 131°
2026-05-09 02:29 40.40919 -83.41818 10591 ft 319 kts 131°
2026-05-09 02:29 40.39611 -83.39482 10349 ft 317 kts 131°
2026-05-09 02:29 40.38306 -83.37147 10107 ft 316 kts 131°
2026-05-09 02:29 40.37012 -83.34829 9909 ft 315 kts 131°
2026-05-09 02:30 40.35718 -83.32514 9788 ft 314 kts 131°
2026-05-09 02:30 40.34424 -83.30209 9651 ft 314 kts 131°
2026-05-09 02:30 40.33129 -83.27906 9530 ft 313 kts 131°
2026-05-09 02:30 40.31826 -83.25625 9388 ft 311 kts 135°
2026-05-09 02:31 40.30320 -83.23649 9270 ft 303 kts 147°
2026-05-09 02:31 40.28671 -83.21944 9139 ft 302 kts 148°
2026-05-09 02:31 40.27027 -83.20240 8998 ft 301 kts 148°
2026-05-09 02:31 40.25417 -83.18563 8870 ft 299 kts 148°
2026-05-09 02:32 40.23797 -83.16873 8738 ft 297 kts 148°
2026-05-09 02:32 40.22183 -83.15189 8606 ft 296 kts 148°
2026-05-09 02:32 40.20615 -83.13431 8475 ft 300 kts 140°
2026-05-09 02:32 40.19321 -83.11268 8346 ft 305 kts 128°
2026-05-09 02:33 40.18182 -83.08933 8219 ft 304 kts 128°
2026-05-09 02:33 40.17044 -83.06614 8083 ft 303 kts 128°
2026-05-09 02:33 40.15891 -83.04319 7953 ft 301 kts 130°
2026-05-09 02:33 40.14713 -83.02069 7827 ft 299 kts 130°
2026-05-09 02:34 40.13525 -82.99842 7700 ft 298 kts 131°
2026-05-09 02:34 40.12338 -82.97621 7416 ft 298 kts 131°
2026-05-09 02:34 40.11156 -82.95403 7024 ft 298 kts 131°
2026-05-09 02:34 40.09977 -82.93202 6767 ft 294 kts 128°
2026-05-09 02:35 40.09131 -82.90776 6538 ft 296 kts 111°
2026-05-09 02:35 40.08807 -82.88099 6099 ft 303 kts 98°
2026-05-09 02:35 40.08645 -82.85329 5582 ft 307 kts 100°
2026-05-09 02:35 40.07988 -82.82741 5075 ft 299 kts 125°
2026-05-09 02:36 40.06776 -82.80576 4566 ft 295 kts 137°
2026-05-09 02:36 40.05548 -82.78401 4098 ft 302 kts 119°
2026-05-09 02:36 40.05115 -82.75760 3990 ft 296 kts 90°
2026-05-09 02:36 40.05336 -82.73163 3998 ft 281 kts 83°
2026-05-09 02:37 40.05631 -82.70703 3995 ft 268 kts 82°
2026-05-09 02:37 40.05925 -82.68325 4004 ft 265 kts 83°
2026-05-09 02:37 40.05921 -82.65960 4004 ft 259 kts 108°
2026-05-09 02:37 40.05096 -82.63975 3997 ft 240 kts 140°
2026-05-09 02:38 40.03763 -82.62966 4002 ft 209 kts 173°
2026-05-09 02:38 40.02400 -82.62738 4000 ft 188 kts 182°
2026-05-09 02:38 40.01215 -82.63060 3984 ft 167 kts 218°
2026-05-09 02:38 40.00499 -82.64203 4023 ft 163 kts 239°
2026-05-09 02:39 39.99970 -82.65496 4005 ft 162 kts 242°
2026-05-09 02:39 39.99473 -82.66784 3998 ft 151 kts 242°
2026-05-09 02:39 39.99070 -82.67928 3922 ft 133 kts 252°
2026-05-09 02:39 39.99109 -82.69112 3696 ft 129 kts 273°
2026-05-09 02:40 39.99163 -82.70254 3502 ft 124 kts 269°
2026-05-09 02:40 39.99217 -82.71360 3333 ft 124 kts 270°
2026-05-09 02:40 39.99276 -82.72475 3163 ft 123 kts 270°
2026-05-09 02:40 39.99338 -82.73590 2995 ft 123 kts 271°
2026-05-09 02:41 39.99400 -82.74691 2835 ft 121 kts 271°
2026-05-09 02:41 39.99462 -82.75779 2676 ft 120 kts 271°
2026-05-09 02:41 39.99524 -82.76860 2514 ft 120 kts 272°
2026-05-09 02:41 39.99587 -82.77947 2353 ft 120 kts 272°
2026-05-09 02:42 39.99650 -82.79045 2186 ft 123 kts 273°
2026-05-09 02:42 39.99714 -82.80158 2023 ft 123 kts 274°
2026-05-09 02:42 39.99778 -82.81274 1861 ft 124 kts 274°
2026-05-09 02:42 39.99843 -82.82400 1693 ft 125 kts 275°
2026-05-09 02:43 39.99909 -82.83540 1520 ft 127 kts 276°
2026-05-09 02:43 39.99975 -82.84693 1350 ft 128 kts 276°
2026-05-09 02:43 40.00041 -82.85856 1176 ft 129 kts 277°
2026-05-09 02:43 40.00098 -82.87024 1002 ft 129 kts 276°
2026-05-09 02:44 40.00168 -82.88195 845 ft 128 kts 279°
2026-05-09 02:44 40.00234 -82.89163 816 ft 96 kts 274°
2026-05-09 02:44 40.00247 -82.89692 818 ft 30 kts 255°
2026-05-09 02:44 40.00189 -82.89789 821 ft 0 kts 227°
2026-05-09 02:46 40.00186 -82.89788 821 ft 0 kts 194°
2026-05-09 02:46 40.00185 -82.89788 821 ft 0 kts 187°
2026-05-09 02:46 40.00165 -82.89744 820 ft 14 kts 112°
2026-05-09 02:47 40.00157 -82.89596 819 ft 18 kts 92°
2026-05-09 02:47 40.00150 -82.89440 819 ft 15 kts 93°
2026-05-09 02:47 40.00143 -82.89309 819 ft 14 kts 95°
2026-05-09 02:47 40.00134 -82.89187 820 ft 13 kts 95°
2026-05-09 02:48 40.00128 -82.89083 821 ft 10 kts 94°
2026-05-09 02:48 40.00124 -82.89000 822 ft 8 kts 94°
2026-05-09 02:48 40.00121 -82.88936 822 ft 6 kts 94°
2026-05-09 02:48 40.00118 -82.88891 822 ft 4 kts 95°
2026-05-09 02:49 40.00116 -82.88865 819 ft 3 kts 95°
2026-05-09 02:49 40.00113 -82.88823 823 ft 7 kts 95°
2026-05-09 02:49 40.00107 -82.88735 824 ft 12 kts 96°
2026-05-09 02:49 40.00055 -82.88631 822 ft 18 kts 160°
2026-05-09 02:50 39.99999 -82.88612 822 ft 8 kts 168°
2026-05-09 02:50 39.99974 -82.88611 821 ft 0 kts 180°